SWR81N UARR-OISS

Flight info

Callsign SWR81N
Flight time 3h 20m
Altitude 37000
Route DOKUS5C DOKUS M158 LOKOZ/K0854F360 N60 GASBI/N0460F360 N60 BAKUV/N0459F370 N72 SAV P574 ASNIT ASNIT1P
Aircraft A321/M-SDE3FGHIRWY/LB1

Departure

Time 2026-05-06 18:40
Airport Manshuk Mametova International Airport (UARR)

Arrival

Time 2026-05-06 22:00
Airport Shiraz Shahid Dastghaib International Airport (OISS)
Time Latitude Longitude Altitude Speed Heading
2026-05-06 17:47 51.15372 51.54065 126 ft 0 kts 232°
2026-05-06 18:29 51.15372 51.54064 126 ft 0 kts 232°
2026-05-06 18:29 51.15367 51.54054 126 ft 2 kts 232°
2026-05-06 18:30 51.15354 51.54038 123 ft 2 kts 204°
2026-05-06 18:30 51.15337 51.54043 122 ft 3 kts 160°
2026-05-06 18:30 51.15318 51.54056 125 ft 3 kts 158°
2026-05-06 18:30 51.15299 51.54054 123 ft 3 kts 199°
2026-05-06 18:31 51.15282 51.54034 125 ft 3 kts 223°
2026-05-06 18:31 51.15276 51.54024 125 ft 0 kts 229°
2026-05-06 18:32 51.15274 51.54021 125 ft 1 kts 229°
2026-05-06 18:32 51.15266 51.54006 122 ft 2 kts 226°
2026-05-06 18:32 51.15252 51.53994 126 ft 2 kts 199°
2026-05-06 18:33 51.15234 51.53997 123 ft 3 kts 167°
2026-05-06 18:33 51.15216 51.54013 124 ft 3 kts 143°
2026-05-06 18:33 51.15197 51.54036 123 ft 4 kts 142°
2026-05-06 18:33 51.15174 51.54065 124 ft 5 kts 141°
2026-05-06 18:34 51.15145 51.54102 124 ft 6 kts 141°
2026-05-06 18:34 51.15101 51.54138 124 ft 8 kts 174°
2026-05-06 18:34 51.15057 51.54091 119 ft 9 kts 232°
2026-05-06 18:34 51.15019 51.54014 122 ft 9 kts 232°
2026-05-06 18:35 51.14980 51.53934 121 ft 9 kts 232°
2026-05-06 18:35 51.14936 51.53844 123 ft 11 kts 232°
2026-05-06 18:35 51.14888 51.53748 121 ft 11 kts 231°
2026-05-06 18:35 51.14842 51.53655 124 ft 11 kts 232°
2026-05-06 18:36 51.14795 51.53559 121 ft 11 kts 232°
2026-05-06 18:36 51.14747 51.53461 126 ft 11 kts 232°
2026-05-06 18:36 51.14699 51.53362 123 ft 12 kts 232°
2026-05-06 18:36 51.14643 51.53249 123 ft 14 kts 232°
2026-05-06 18:37 51.14583 51.53128 120 ft 14 kts 231°
2026-05-06 18:37 51.14523 51.53004 119 ft 14 kts 232°
2026-05-06 18:37 51.14505 51.52863 125 ft 12 kts 268°
2026-05-06 18:37 51.14457 51.52811 123 ft 9 kts 158°
2026-05-06 18:38 51.14454 51.52865 121 ft 5 kts 49°
2026-05-06 18:38 51.14461 51.52879 125 ft 0 kts 52°
2026-05-06 18:38 51.14462 51.52880 125 ft 1 kts 52°
2026-05-06 18:39 51.14556 51.53072 123 ft 57 kts 52°
2026-05-06 18:39 51.14941 51.53852 120 ft 119 kts 52°
2026-05-06 18:39 51.15558 51.55095 133 ft 164 kts 51°
2026-05-06 18:40 51.17016 51.58082 1176 ft 171 kts 52°
2026-05-06 18:40 51.17722 51.59582 1817 ft 169 kts 54°
2026-05-06 18:40 51.18430 51.61175 2119 ft 185 kts 62°
2026-05-06 18:40 51.18665 51.63268 2262 ft 205 kts 95°
2026-05-06 18:41 51.18094 51.65397 2516 ft 216 kts 126°
2026-05-06 18:41 51.16832 51.66759 2632 ft 236 kts 161°
2026-05-06 18:41 51.15112 51.66638 2909 ft 266 kts 201°
2026-05-06 18:41 51.13488 51.65095 3582 ft 277 kts 214°
2026-05-06 18:42 51.11944 51.63193 4323 ft 285 kts 218°
2026-05-06 18:42 51.10408 51.61136 5047 ft 292 kts 219°
2026-05-06 18:42 51.08851 51.59021 5839 ft 296 kts 219°
2026-05-06 18:42 51.07170 51.57198 6571 ft 298 kts 198°
2026-05-06 18:43 51.05151 51.56701 7308 ft 294 kts 175°
2026-05-06 18:43 51.03099 51.56773 8154 ft 295 kts 175°
2026-05-06 18:43 51.01048 51.56870 8986 ft 296 kts 174°
2026-05-06 18:43 50.98977 51.56972 9767 ft 299 kts 174°
2026-05-06 18:44 50.96875 51.57072 10307 ft 310 kts 175°
2026-05-06 18:44 50.94642 51.57175 10484 ft 333 kts 175°
2026-05-06 18:44 50.92244 51.57277 10621 ft 356 kts 175°
2026-05-06 18:44 50.89704 51.57373 10946 ft 370 kts 176°
2026-05-06 18:45 50.87112 51.57463 11561 ft 375 kts 176°
2026-05-06 18:45 50.84492 51.57553 12233 ft 378 kts 176°
2026-05-06 18:45 50.81850 51.57644 12925 ft 381 kts 176°
2026-05-06 18:45 50.79184 51.57739 13594 ft 385 kts 176°
2026-05-06 18:46 50.76492 51.57838 14176 ft 389 kts 176°
2026-05-06 18:46 50.73779 51.57940 14785 ft 391 kts 176°
2026-05-06 18:46 50.71045 51.58039 15387 ft 394 kts 176°
2026-05-06 18:46 50.68302 51.58136 15981 ft 396 kts 176°
2026-05-06 18:47 50.65537 51.58238 16558 ft 399 kts 176°
2026-05-06 18:47 50.62753 51.58343 17120 ft 402 kts 176°
2026-05-06 18:47 50.59950 51.58448 17675 ft 404 kts 176°
2026-05-06 18:47 50.57127 51.58549 18214 ft 407 kts 176°
2026-05-06 18:48 50.54285 51.58646 18681 ft 410 kts 176°
2026-05-06 18:48 50.51422 51.58746 19149 ft 412 kts 176°
2026-05-06 18:48 50.48540 51.58851 19615 ft 415 kts 176°
2026-05-06 18:48 50.45647 51.58960 20084 ft 417 kts 177°
2026-05-06 18:49 50.42739 51.59068 20595 ft 419 kts 177°
2026-05-06 18:49 50.39816 51.59205 21048 ft 421 kts 176°
2026-05-06 18:49 50.36879 51.59392 21506 ft 424 kts 176°
2026-05-06 18:49 50.33923 51.59608 21964 ft 426 kts 175°
2026-05-06 18:50 50.30951 51.59838 22419 ft 429 kts 175°
2026-05-06 18:50 50.27965 51.60072 22863 ft 431 kts 175°
2026-05-06 18:50 50.24954 51.60296 23304 ft 434 kts 175°
2026-05-06 18:50 50.21931 51.60510 23671 ft 437 kts 176°
2026-05-06 18:51 50.18885 51.60718 24037 ft 439 kts 176°
2026-05-06 18:51 50.15830 51.60922 24439 ft 439 kts 176°
2026-05-06 18:51 50.12775 51.61126 24852 ft 440 kts 176°
2026-05-06 18:51 50.09710 51.61331 25220 ft 442 kts 176°
2026-05-06 18:52 50.06631 51.61538 25569 ft 444 kts 176°
2026-05-06 18:52 50.03537 51.61748 25911 ft 446 kts 176°
2026-05-06 18:52 50.00427 51.61962 26234 ft 448 kts 176°
2026-05-06 18:52 49.97306 51.62173 26555 ft 451 kts 176°
2026-05-06 18:53 49.94207 51.62379 26877 ft 453 kts 176°
2026-05-06 18:53 49.91048 51.62584 27189 ft 455 kts 176°
2026-05-06 18:53 49.87881 51.62789 27503 ft 457 kts 176°
2026-05-06 18:53 49.84695 51.63001 27825 ft 459 kts 176°
2026-05-06 18:54 49.81495 51.63219 28129 ft 461 kts 176°
2026-05-06 18:54 49.78284 51.63450 28487 ft 462 kts 176°
2026-05-06 18:54 49.75079 51.63687 28912 ft 461 kts 176°
2026-05-06 18:54 49.71881 51.63918 29339 ft 460 kts 176°
2026-05-06 18:55 49.68692 51.64142 29758 ft 459 kts 176°
2026-05-06 18:55 49.65503 51.64357 30106 ft 459 kts 176°
2026-05-06 18:55 49.62307 51.64566 30418 ft 459 kts 177°
2026-05-06 18:55 49.59130 51.64774 30878 ft 455 kts 177°
2026-05-06 18:56 49.55977 51.64981 31303 ft 453 kts 177°
2026-05-06 18:56 49.52836 51.65183 31685 ft 451 kts 177°
2026-05-06 18:56 49.49702 51.65385 32049 ft 450 kts 177°
2026-05-06 18:56 49.46572 51.65591 32415 ft 449 kts 177°
2026-05-06 18:57 49.43451 51.65799 32781 ft 448 kts 177°
2026-05-06 18:57 49.40338 51.66013 33156 ft 447 kts 177°
2026-05-06 18:57 49.37231 51.66226 33512 ft 447 kts 177°
2026-05-06 18:57 49.34134 51.66434 33860 ft 445 kts 178°
2026-05-06 18:58 49.31051 51.66638 34256 ft 441 kts 178°
2026-05-06 18:58 49.27991 51.66838 34562 ft 440 kts 178°
2026-05-06 18:58 49.24923 51.67039 34815 ft 440 kts 178°
2026-05-06 18:58 49.21863 51.67241 35062 ft 441 kts 178°
2026-05-06 18:59 49.18800 51.67440 35308 ft 441 kts 178°
2026-05-06 18:59 49.15736 51.67633 35553 ft 441 kts 178°
2026-05-06 18:59 49.13708 51.67763 35718 ft 441 kts 178°
2026-05-06 18:59 49.09613 51.68030 36039 ft 440 kts 178°
2026-05-06 19:00 49.06552 51.68234 36274 ft 440 kts 178°
2026-05-06 19:00 49.03495 51.68440 36545 ft 439 kts 178°
2026-05-06 19:00 49.00446 51.68645 36752 ft 439 kts 178°
2026-05-06 19:01 48.94285 51.69033 36813 ft 447 kts 178°
2026-05-06 19:01 48.88067 51.69428 36810 ft 447 kts 178°
2026-05-06 19:02 48.81878 51.69826 36805 ft 442 kts 178°
2026-05-06 19:02 48.75824 51.70217 36807 ft 435 kts 178°
2026-05-06 19:03 48.69795 51.70609 36813 ft 432 kts 178°
2026-05-06 19:03 48.63803 51.70998 36808 ft 429 kts 178°
2026-05-06 19:04 48.57849 51.71366 36810 ft 427 kts 178°
2026-05-06 19:04 48.51926 51.71740 36808 ft 426 kts 178°
2026-05-06 19:05 48.46005 51.72123 36812 ft 426 kts 178°
2026-05-06 19:05 48.40057 51.72478 36812 ft 428 kts 178°
2026-05-06 19:06 48.34087 51.72828 36808 ft 430 kts 178°
2026-05-06 19:06 48.28097 51.73190 36816 ft 432 kts 178°
2026-05-06 19:07 48.22113 51.73575 36813 ft 433 kts 178°
2026-05-06 19:07 48.16073 51.73960 36824 ft 434 kts 178°
2026-05-06 19:08 48.10030 51.74341 36816 ft 435 kts 178°
2026-05-06 19:08 48.03985 51.74709 36814 ft 435 kts 178°
2026-05-06 19:09 47.97935 51.75087 36801 ft 435 kts 178°
2026-05-06 19:09 47.92898 51.75399 36812 ft 436 kts 178°
2026-05-06 19:10 47.86843 51.75766 36815 ft 436 kts 178°
2026-05-06 19:10 47.80779 51.76141 36828 ft 436 kts 178°
2026-05-06 19:11 47.74709 51.76508 36819 ft 437 kts 178°
2026-05-06 19:11 47.68630 51.76874 36816 ft 437 kts 179°
2026-05-06 19:12 47.62557 51.77230 36822 ft 437 kts 179°
2026-05-06 19:12 47.56490 51.77593 36819 ft 437 kts 179°
2026-05-06 19:13 47.50416 51.77959 36840 ft 437 kts 178°
2026-05-06 19:13 47.44339 51.78319 36827 ft 436 kts 179°
2026-05-06 19:14 47.38264 51.78679 36834 ft 436 kts 179°
2026-05-06 19:14 47.32194 51.79033 36833 ft 436 kts 179°
2026-05-06 19:15 47.26170 51.79386 36833 ft 436 kts 179°
2026-05-06 19:15 47.20103 51.79746 36838 ft 436 kts 179°
2026-05-06 19:16 47.14038 51.79928 36852 ft 435 kts 185°
2026-05-06 19:16 47.08045 51.78700 36844 ft 435 kts 189°
2026-05-06 19:17 47.02057 51.77343 36838 ft 436 kts 189°
2026-05-06 19:17 46.96061 51.75989 36822 ft 436 kts 189°
2026-05-06 19:18 46.90078 51.74659 36831 ft 436 kts 189°
2026-05-06 19:18 46.84082 51.73334 36852 ft 436 kts 189°
2026-05-06 19:19 46.78082 51.72010 36849 ft 436 kts 189°
2026-05-06 19:19 46.72071 51.70677 36850 ft 437 kts 189°
2026-05-06 19:20 46.66059 51.69340 36835 ft 437 kts 189°
2026-05-06 19:20 46.60047 51.68011 36841 ft 437 kts 189°
2026-05-06 19:21 46.54074 51.66708 36857 ft 437 kts 189°
2026-05-06 19:21 46.48065 51.65392 36861 ft 437 kts 189°
2026-05-06 19:22 46.42050 51.64082 36862 ft 437 kts 189°
2026-05-06 19:22 46.36040 51.62760 36858 ft 436 kts 189°
2026-05-06 19:23 46.30038 51.61441 36867 ft 436 kts 189°
2026-05-06 19:23 46.24039 51.60123 36873 ft 435 kts 189°
2026-05-06 19:24 46.18047 51.58809 36875 ft 435 kts 189°
2026-05-06 19:24 46.12060 51.57500 36865 ft 435 kts 189°
2026-05-06 19:25 46.06080 51.56198 36874 ft 435 kts 189°
2026-05-06 19:25 46.00142 51.54903 36889 ft 434 kts 189°
2026-05-06 19:26 45.94165 51.53604 36902 ft 434 kts 189°
2026-05-06 19:26 45.88188 51.52308 36900 ft 434 kts 189°
2026-05-06 19:27 45.82213 51.51022 36893 ft 434 kts 190°
2026-05-06 19:27 45.76245 51.49757 36998 ft 431 kts 189°
2026-05-06 19:27 45.73287 51.49134 37131 ft 428 kts 190°
2026-05-06 19:28 45.70351 51.48511 37254 ft 425 kts 190°
2026-05-06 19:28 45.67437 51.47888 37385 ft 421 kts 190°
2026-05-06 19:28 45.64556 51.47270 37514 ft 417 kts 190°
2026-05-06 19:28 45.61699 51.46653 37649 ft 414 kts 190°
2026-05-06 19:29 45.58852 51.46038 37799 ft 414 kts 190°
2026-05-06 19:29 45.53176 51.44819 37917 ft 418 kts 190°
2026-05-06 19:30 45.47375 51.43587 37922 ft 425 kts 190°
2026-05-06 19:30 45.41462 51.42342 37925 ft 434 kts 190°
2026-05-06 19:31 45.35444 51.41067 37927 ft 439 kts 191°
2026-05-06 19:31 45.26423 51.39147 37935 ft 435 kts 191°
2026-05-06 19:32 45.20449 51.37889 37938 ft 433 kts 191°
2026-05-06 19:32 45.14531 51.36640 37942 ft 432 kts 191°
2026-05-06 19:33 45.08590 51.35368 37947 ft 431 kts 191°
2026-05-06 19:33 45.02661 51.34104 37922 ft 430 kts 191°
2026-05-06 19:34 44.96747 51.32866 37931 ft 429 kts 191°
2026-05-06 19:34 44.90845 51.31636 37953 ft 428 kts 191°
2026-05-06 19:35 44.84953 51.30405 37954 ft 428 kts 191°
2026-05-06 19:35 44.79070 51.29177 37954 ft 427 kts 192°
2026-05-06 19:36 44.73219 51.27760 37938 ft 426 kts 193°
2026-05-06 19:36 44.67424 51.26265 37949 ft 426 kts 193°
2026-05-06 19:37 44.61583 51.24781 37960 ft 427 kts 193°
2026-05-06 19:37 44.56722 51.23572 37961 ft 427 kts 193°
2026-05-06 19:38 44.49888 51.21872 37971 ft 427 kts 193°
2026-05-06 19:38 44.44038 51.20412 37974 ft 427 kts 193°
2026-05-06 19:39 44.38183 51.18968 37984 ft 427 kts 193°
2026-05-06 19:39 44.32363 51.17537 37982 ft 428 kts 193°
2026-05-06 19:40 44.26496 51.16077 37986 ft 428 kts 193°
2026-05-06 19:40 44.20625 51.14623 37972 ft 428 kts 193°
2026-05-06 19:41 44.14755 51.13172 37981 ft 428 kts 193°
2026-05-06 19:41 44.08887 51.11729 37989 ft 428 kts 193°
2026-05-06 19:42 44.03014 51.10292 37994 ft 428 kts 193°
2026-05-06 19:42 43.97180 51.08866 38000 ft 429 kts 193°
2026-05-06 19:43 43.91306 51.07435 37986 ft 428 kts 194°
2026-05-06 19:43 43.85497 51.05730 37991 ft 425 kts 200°
2026-05-06 19:44 43.79844 51.03330 37995 ft 425 kts 200°
2026-05-06 19:44 43.74193 51.00917 37996 ft 425 kts 200°
2026-05-06 19:45 43.68578 50.98535 37977 ft 425 kts 200°
2026-05-06 19:45 43.62916 50.96161 37990 ft 425 kts 200°
2026-05-06 19:46 43.57257 50.93784 37993 ft 425 kts 201°
2026-05-06 19:46 43.51607 50.91379 38001 ft 425 kts 201°
2026-05-06 19:47 43.45954 50.88994 37999 ft 425 kts 200°
2026-05-06 19:47 43.40292 50.86631 37975 ft 425 kts 201°
2026-05-06 19:48 43.34671 50.84294 37990 ft 425 kts 201°
2026-05-06 19:48 43.29020 50.81945 37996 ft 424 kts 201°
2026-05-06 19:49 43.23377 50.79599 38004 ft 424 kts 201°
2026-05-06 19:49 43.17739 50.77267 38002 ft 423 kts 201°
2026-05-06 19:50 43.12142 50.74943 37987 ft 423 kts 201°
2026-05-06 19:50 43.06515 50.72608 38003 ft 422 kts 201°
2026-05-06 19:51 43.00902 50.70296 38004 ft 420 kts 201°
2026-05-06 19:51 42.95312 50.67997 38019 ft 419 kts 201°
2026-05-06 19:52 42.89733 50.65708 38020 ft 418 kts 201°
2026-05-06 19:52 42.84170 50.63421 37998 ft 417 kts 201°
2026-05-06 19:53 42.78660 50.61156 38004 ft 416 kts 201°
2026-05-06 19:53 42.73125 50.58899 38011 ft 415 kts 201°
2026-05-06 19:54 42.67596 50.56650 38013 ft 414 kts 201°
2026-05-06 19:54 42.62081 50.54411 38016 ft 413 kts 201°
2026-05-06 19:55 42.56572 50.52176 37992 ft 413 kts 201°
2026-05-06 19:55 42.51067 50.49963 38014 ft 412 kts 201°
2026-05-06 19:56 42.45612 50.47763 38020 ft 412 kts 201°
2026-05-06 19:56 42.39954 50.46273 38023 ft 417 kts 193°
2026-05-06 19:57 42.34207 50.45209 38025 ft 417 kts 193°
2026-05-06 19:57 42.28466 50.44127 38011 ft 416 kts 194°
2026-05-06 19:58 42.22776 50.43058 38021 ft 415 kts 194°
2026-05-06 19:58 42.17073 50.41984 38024 ft 413 kts 194°
2026-05-06 19:59 42.11383 50.40925 38030 ft 412 kts 194°
2026-05-06 19:59 42.05709 50.39868 38004 ft 411 kts 194°
2026-05-06 20:00 42.00046 50.38816 38017 ft 410 kts 194°
2026-05-06 20:00 41.94392 50.37770 38026 ft 410 kts 194°
2026-05-06 20:01 41.88740 50.36715 38034 ft 410 kts 194°
2026-05-06 20:01 41.83128 50.35652 38040 ft 410 kts 194°
2026-05-06 20:02 41.77476 50.34578 38059 ft 410 kts 194°
2026-05-06 20:02 41.71824 50.33511 38056 ft 410 kts 194°
2026-05-06 20:03 41.66166 50.32430 38054 ft 410 kts 194°
2026-05-06 20:03 41.60511 50.31361 38026 ft 411 kts 194°
2026-05-06 20:04 41.54889 50.30315 38041 ft 410 kts 194°
2026-05-06 20:04 41.49236 50.29262 38045 ft 410 kts 194°
2026-05-06 20:05 41.43586 50.28213 38056 ft 410 kts 194°
2026-05-06 20:05 41.37944 50.27158 38055 ft 410 kts 194°
2026-05-06 20:06 41.32339 50.26114 38035 ft 409 kts 195°
2026-05-06 20:06 41.26701 50.25068 38051 ft 409 kts 195°
2026-05-06 20:07 41.21069 50.24028 38058 ft 409 kts 195°
2026-05-06 20:07 41.15436 50.22995 38060 ft 409 kts 194°
2026-05-06 20:08 41.09826 50.21871 38044 ft 406 kts 197°
2026-05-06 20:08 41.04346 50.20393 38049 ft 404 kts 199°
2026-05-06 20:09 40.98863 50.18813 38049 ft 403 kts 199°
2026-05-06 20:09 40.93374 50.17302 38056 ft 403 kts 198°
2026-05-06 20:10 40.87880 50.15830 38029 ft 403 kts 198°
2026-05-06 20:10 40.82392 50.14371 38043 ft 402 kts 198°
2026-05-06 20:11 40.76913 50.12915 38054 ft 401 kts 198°
2026-05-06 20:11 40.71441 50.11461 38063 ft 401 kts 198°
2026-05-06 20:12 40.66010 50.10017 38081 ft 401 kts 198°
2026-05-06 20:12 40.60552 50.08568 38065 ft 400 kts 198°
2026-05-06 20:13 40.55100 50.07117 38073 ft 399 kts 198°
2026-05-06 20:13 40.49652 50.05672 38077 ft 399 kts 198°
2026-05-06 20:14 40.44046 50.05443 38069 ft 416 kts 183°
2026-05-06 20:14 40.38293 50.06229 38049 ft 415 kts 183°
2026-05-06 20:15 40.32549 50.06980 38058 ft 414 kts 184°
2026-05-06 20:15 40.26811 50.07700 38065 ft 414 kts 184°
2026-05-06 20:16 40.21076 50.08430 38043 ft 414 kts 184°
2026-05-06 20:16 40.15387 50.09164 38064 ft 414 kts 184°
2026-05-06 20:17 40.09661 50.09919 38068 ft 413 kts 184°
2026-05-06 20:17 40.03939 50.10657 38075 ft 413 kts 184°
2026-05-06 20:18 39.98224 50.11388 38049 ft 413 kts 184°
2026-05-06 20:18 39.92550 50.12117 38067 ft 412 kts 184°
2026-05-06 20:19 39.86841 50.12848 38075 ft 412 kts 184°
2026-05-06 20:19 39.81134 50.13572 38042 ft 412 kts 184°
2026-05-06 20:20 39.75444 50.14106 38053 ft 408 kts 186°
2026-05-06 20:20 39.69778 50.14402 38062 ft 407 kts 187°
2026-05-06 20:21 39.65070 50.14639 38067 ft 408 kts 186°
2026-05-06 20:21 39.59396 50.14969 38080 ft 408 kts 186°
2026-05-06 20:22 39.52804 50.15394 38086 ft 408 kts 186°
2026-05-06 20:22 39.47133 50.15768 38086 ft 408 kts 186°
2026-05-06 20:23 39.42417 50.16069 38061 ft 408 kts 186°
2026-05-06 20:23 39.36742 50.16421 38080 ft 408 kts 186°
2026-05-06 20:24 39.31076 50.16770 38083 ft 408 kts 186°
2026-05-06 20:24 39.25407 50.17120 38083 ft 408 kts 186°
2026-05-06 20:25 39.19780 50.17476 38057 ft 408 kts 186°
2026-05-06 20:25 39.14114 50.17834 38083 ft 407 kts 186°
2026-05-06 20:26 39.08450 50.18187 38083 ft 407 kts 186°
2026-05-06 20:26 39.02784 50.18562 38058 ft 408 kts 186°
2026-05-06 20:27 38.97162 50.18924 38070 ft 407 kts 186°
2026-05-06 20:27 38.91500 50.19286 38074 ft 407 kts 186°
2026-05-06 20:28 38.85835 50.19640 38056 ft 407 kts 186°
2026-05-06 20:28 38.80179 50.19984 38064 ft 407 kts 186°
2026-05-06 20:29 38.74519 50.20331 38067 ft 407 kts 186°
2026-05-06 20:29 38.68858 50.20680 38071 ft 407 kts 186°
2026-05-06 20:30 38.60409 50.21194 38060 ft 407 kts 186°
2026-05-06 20:31 38.54751 50.21534 38064 ft 407 kts 186°
2026-05-06 20:31 38.49095 50.21858 38065 ft 407 kts 186°
2026-05-06 20:32 38.43440 50.22190 38042 ft 407 kts 186°
2026-05-06 20:32 38.37819 50.22531 38052 ft 407 kts 186°
2026-05-06 20:33 38.32158 50.22876 38056 ft 407 kts 186°
2026-05-06 20:33 38.26496 50.23223 38034 ft 407 kts 186°
2026-05-06 20:34 38.20831 50.23568 38048 ft 408 kts 186°
2026-05-06 20:34 38.15166 50.23912 38056 ft 408 kts 186°
2026-05-06 20:35 38.09530 50.24261 38031 ft 408 kts 186°
2026-05-06 20:35 38.03851 50.24623 38044 ft 409 kts 186°
2026-05-06 20:36 37.98168 50.24983 38054 ft 409 kts 186°
2026-05-06 20:36 37.92484 50.25339 38042 ft 409 kts 186°
2026-05-06 20:37 37.86793 50.25699 38049 ft 409 kts 186°
2026-05-06 20:37 37.81099 50.26046 38057 ft 410 kts 186°
2026-05-06 20:38 37.75440 50.26390 38066 ft 410 kts 186°
2026-05-06 20:38 37.69740 50.26736 38085 ft 410 kts 186°
2026-05-06 20:39 37.64037 50.27096 38073 ft 411 kts 186°
2026-05-06 20:39 37.58328 50.27459 38072 ft 411 kts 186°
2026-05-06 20:40 37.52618 50.27814 38043 ft 411 kts 186°
2026-05-06 20:40 37.46950 50.28160 38056 ft 411 kts 186°
2026-05-06 20:41 37.41238 50.28515 38062 ft 411 kts 186°
2026-05-06 20:41 37.35526 50.28867 38043 ft 411 kts 186°
2026-05-06 20:42 37.29813 50.29210 38052 ft 411 kts 186°
2026-05-06 20:42 37.24100 50.29558 38061 ft 411 kts 186°
2026-05-06 20:43 37.18426 50.29908 38046 ft 411 kts 186°
2026-05-06 20:43 37.12709 50.30256 38051 ft 411 kts 186°
2026-05-06 20:44 37.06997 50.30601 38058 ft 411 kts 186°
2026-05-06 20:44 37.01284 50.30914 38040 ft 410 kts 187°
2026-05-06 20:45 36.95574 50.31140 38051 ft 411 kts 187°
2026-05-06 20:45 36.89842 50.31347 38043 ft 413 kts 187°
2026-05-06 20:46 36.84133 50.31573 38042 ft 414 kts 187°
2026-05-06 20:46 36.78370 50.31821 38039 ft 415 kts 187°
2026-05-06 20:47 36.72600 50.32067 38024 ft 413 kts 187°
2026-05-06 20:47 36.66870 50.32299 38023 ft 411 kts 187°
2026-05-06 20:48 36.61166 50.32528 38008 ft 410 kts 187°
2026-05-06 20:48 36.55455 50.32767 38021 ft 411 kts 187°
2026-05-06 20:49 36.49726 50.33021 38027 ft 412 kts 187°
2026-05-06 20:49 36.44032 50.33271 38025 ft 412 kts 187°
2026-05-06 20:50 36.38314 50.33517 38037 ft 410 kts 187°
2026-05-06 20:50 36.32661 50.33756 38040 ft 404 kts 187°
2026-05-06 20:51 36.27069 50.33972 38012 ft 401 kts 188°
2026-05-06 20:51 36.21528 50.34104 38040 ft 397 kts 188°
2026-05-06 20:52 36.16019 50.34211 38038 ft 395 kts 188°
2026-05-06 20:52 36.10564 50.34333 38032 ft 395 kts 188°
2026-05-06 20:53 36.05070 50.34474 38004 ft 395 kts 188°
2026-05-06 20:53 35.99562 50.34621 38014 ft 397 kts 188°
2026-05-06 20:54 35.94036 50.34765 38014 ft 398 kts 188°
2026-05-06 20:54 35.88497 50.34910 38019 ft 399 kts 188°
2026-05-06 20:55 35.82941 50.35048 38030 ft 400 kts 188°
2026-05-06 20:55 35.77411 50.35183 38029 ft 400 kts 188°
2026-05-06 20:56 35.71833 50.35327 38029 ft 401 kts 188°
2026-05-06 20:56 35.66251 50.35474 38010 ft 401 kts 188°
2026-05-06 20:57 35.60668 50.35612 38022 ft 401 kts 188°
2026-05-06 20:57 35.55076 50.35754 38027 ft 402 kts 188°
2026-05-06 20:58 35.49515 50.35891 38012 ft 403 kts 188°
2026-05-06 20:58 35.43907 50.36029 38027 ft 403 kts 188°
2026-05-06 20:59 35.38302 50.36171 38031 ft 403 kts 188°
2026-05-06 20:59 35.32705 50.36319 38039 ft 401 kts 188°
2026-05-06 21:00 35.27128 50.36465 38018 ft 400 kts 188°
2026-05-06 21:00 35.21573 50.36601 38029 ft 399 kts 188°
2026-05-06 21:01 35.16027 50.36737 38038 ft 398 kts 188°
2026-05-06 21:01 35.10531 50.36876 38034 ft 397 kts 188°
2026-05-06 21:02 35.05007 50.37019 38034 ft 397 kts 188°
2026-05-06 21:02 34.99455 50.38107 38034 ft 419 kts 171°
2026-05-06 21:03 34.93954 50.40502 38016 ft 419 kts 171°
2026-05-06 21:03 34.88501 50.42855 38024 ft 418 kts 172°
2026-05-06 21:04 34.83015 50.45205 38032 ft 418 kts 172°
2026-05-06 21:04 34.77536 50.47554 38040 ft 418 kts 172°
2026-05-06 21:05 34.72055 50.49901 38041 ft 418 kts 172°
2026-05-06 21:05 34.66568 50.52257 38046 ft 418 kts 172°
2026-05-06 21:06 34.61111 50.54593 38047 ft 419 kts 172°
2026-05-06 21:06 34.55626 50.56943 38069 ft 417 kts 172°
2026-05-06 21:07 34.50133 50.59283 38079 ft 420 kts 172°
2026-05-06 21:07 34.44591 50.61631 38079 ft 424 kts 172°
2026-05-06 21:08 34.39032 50.63994 38095 ft 428 kts 172°
2026-05-06 21:08 34.33384 50.66401 38090 ft 431 kts 172°
2026-05-06 21:09 34.27709 50.68819 38103 ft 433 kts 172°
2026-05-06 21:09 34.22033 50.71231 38074 ft 431 kts 172°
2026-05-06 21:10 34.16371 50.73628 38094 ft 432 kts 172°
2026-05-06 21:10 34.10690 50.76028 38114 ft 434 kts 172°
2026-05-06 21:11 34.04983 50.78439 38115 ft 435 kts 172°
2026-05-06 21:11 33.99312 50.80832 38127 ft 434 kts 172°
2026-05-06 21:12 33.93613 50.83227 38132 ft 434 kts 172°
2026-05-06 21:12 33.87910 50.85624 38109 ft 434 kts 172°
2026-05-06 21:13 33.82216 50.88016 38126 ft 433 kts 172°
2026-05-06 21:13 33.76531 50.90393 38132 ft 433 kts 172°
2026-05-06 21:14 33.70886 50.92758 38113 ft 432 kts 172°
2026-05-06 21:14 33.65208 50.95135 38136 ft 432 kts 172°
2026-05-06 21:15 33.59530 50.97507 38147 ft 432 kts 172°
2026-05-06 21:15 33.53852 50.99875 38133 ft 432 kts 172°
2026-05-06 21:16 33.48216 51.02218 38146 ft 432 kts 172°
2026-05-06 21:16 33.42539 51.04572 38167 ft 432 kts 172°
2026-05-06 21:17 33.36863 51.06926 38141 ft 432 kts 172°
2026-05-06 21:17 33.31193 51.09280 38155 ft 431 kts 172°
2026-05-06 21:18 33.25529 51.11630 38166 ft 430 kts 172°
2026-05-06 21:18 33.19872 51.13970 38171 ft 430 kts 172°
2026-05-06 21:19 33.14224 51.16287 38146 ft 429 kts 172°
2026-05-06 21:19 33.08579 51.18605 38150 ft 429 kts 172°
2026-05-06 21:20 33.02977 51.20920 38158 ft 429 kts 172°
2026-05-06 21:20 32.97341 51.23236 38143 ft 429 kts 172°
2026-05-06 21:21 32.91683 51.25554 38146 ft 430 kts 172°
2026-05-06 21:21 32.86019 51.27880 38150 ft 431 kts 172°
2026-05-06 21:22 32.80355 51.30200 38129 ft 430 kts 173°
2026-05-06 21:22 32.74709 51.32511 38136 ft 428 kts 173°
2026-05-06 21:23 32.69110 51.34799 38167 ft 429 kts 173°
2026-05-06 21:23 32.63476 51.37110 38131 ft 428 kts 173°
2026-05-06 21:24 32.57840 51.39402 38137 ft 428 kts 173°
2026-05-06 21:24 32.52203 51.41684 38139 ft 428 kts 173°
2026-05-06 21:25 32.46566 51.43967 38148 ft 428 kts 173°
2026-05-06 21:25 32.40921 51.46254 38114 ft 428 kts 173°
2026-05-06 21:26 32.35324 51.48528 38129 ft 428 kts 173°
2026-05-06 21:26 32.29683 51.50815 38139 ft 428 kts 173°
2026-05-06 21:27 32.24043 51.53091 38146 ft 428 kts 173°
2026-05-06 21:27 32.18399 51.55368 38158 ft 429 kts 173°
2026-05-06 21:28 32.12756 51.57664 38175 ft 429 kts 173°
2026-05-06 21:28 32.07111 51.59950 38150 ft 429 kts 173°
2026-05-06 21:29 32.01500 51.62205 38156 ft 429 kts 173°
2026-05-06 21:29 31.95854 51.64464 38166 ft 429 kts 173°
2026-05-06 21:30 31.90208 51.66734 38177 ft 428 kts 173°
2026-05-06 21:30 31.84575 51.68993 38164 ft 427 kts 174°
2026-05-06 21:31 31.78993 51.71220 38175 ft 425 kts 173°
2026-05-06 21:31 31.73401 51.73462 38192 ft 424 kts 173°
2026-05-06 21:32 31.67800 51.75694 38183 ft 425 kts 173°
2026-05-06 21:32 31.59382 51.79049 38205 ft 426 kts 173°
2026-05-06 21:33 31.53771 51.81269 38243 ft 426 kts 174°
2026-05-06 21:33 31.48180 51.83475 38217 ft 423 kts 174°
2026-05-06 21:34 31.42639 51.85670 38230 ft 423 kts 174°
2026-05-06 21:34 31.37058 51.87886 38228 ft 423 kts 174°
2026-05-06 21:35 31.31478 51.90091 38198 ft 423 kts 174°
2026-05-06 21:35 31.25909 51.92291 38239 ft 423 kts 174°
2026-05-06 21:36 31.23112 51.93391 38037 ft 428 kts 173°
2026-05-06 21:36 31.20276 51.94507 37748 ft 433 kts 173°
2026-05-06 21:36 31.17398 51.95641 37345 ft 440 kts 173°
2026-05-06 21:36 31.14513 51.96777 36937 ft 446 kts 173°
2026-05-06 21:37 31.11562 51.97941 36520 ft 448 kts 172°
2026-05-06 21:37 31.08610 51.99111 36129 ft 447 kts 172°
2026-05-06 21:37 31.05669 52.00280 35752 ft 446 kts 172°
2026-05-06 21:37 31.02735 52.01444 35372 ft 445 kts 172°
2026-05-06 21:38 30.99809 52.02602 34998 ft 443 kts 172°
2026-05-06 21:38 30.96893 52.03749 34634 ft 442 kts 172°
2026-05-06 21:38 30.93976 52.04890 34271 ft 442 kts 171°
2026-05-06 21:38 30.91057 52.06029 33833 ft 442 kts 171°
2026-05-06 21:39 30.88143 52.07168 33412 ft 442 kts 171°
2026-05-06 21:39 30.85254 52.08295 33008 ft 445 kts 171°
2026-05-06 21:39 30.82310 52.09442 32601 ft 447 kts 170°
2026-05-06 21:39 30.79361 52.10594 32196 ft 447 kts 169°
2026-05-06 21:40 30.76407 52.11750 31804 ft 449 kts 169°
2026-05-06 21:40 30.73438 52.12913 31412 ft 452 kts 169°
2026-05-06 21:40 30.70444 52.14085 31017 ft 455 kts 169°
2026-05-06 21:40 30.67432 52.15262 30650 ft 458 kts 168°
2026-05-06 21:41 30.64405 52.16444 30272 ft 460 kts 168°
2026-05-06 21:41 30.61363 52.17628 29827 ft 462 kts 168°
2026-05-06 21:41 30.58307 52.18813 29393 ft 464 kts 168°
2026-05-06 21:41 30.55240 52.20002 28975 ft 466 kts 167°
2026-05-06 21:42 30.52162 52.21197 28536 ft 467 kts 167°
2026-05-06 21:42 30.49080 52.22393 28121 ft 467 kts 167°
2026-05-06 21:42 30.46046 52.23572 27704 ft 466 kts 167°
2026-05-06 21:42 30.42978 52.24760 27305 ft 465 kts 167°
2026-05-06 21:43 30.39909 52.25948 26912 ft 465 kts 167°
2026-05-06 21:43 30.36844 52.27136 26512 ft 464 kts 166°
2026-05-06 21:43 30.33782 52.28320 26134 ft 463 kts 166°
2026-05-06 21:43 30.30726 52.29499 25761 ft 462 kts 166°
2026-05-06 21:44 30.27677 52.30673 25375 ft 461 kts 166°
2026-05-06 21:44 30.24637 52.31842 25003 ft 459 kts 166°
2026-05-06 21:44 30.21619 52.33006 24633 ft 455 kts 166°
2026-05-06 21:44 30.18628 52.34159 24244 ft 452 kts 165°
2026-05-06 21:45 30.15645 52.35306 23852 ft 451 kts 165°
2026-05-06 21:45 30.12713 52.36431 23371 ft 449 kts 164°
2026-05-06 21:45 30.09757 52.37564 22901 ft 447 kts 164°
2026-05-06 21:45 30.06810 52.38693 22443 ft 445 kts 164°
2026-05-06 21:46 30.03878 52.39818 21980 ft 443 kts 164°
2026-05-06 21:46 30.00965 52.40935 21530 ft 439 kts 164°
2026-05-06 21:46 29.98073 52.42040 21070 ft 436 kts 164°
2026-05-06 21:46 29.95200 52.43134 20637 ft 433 kts 164°
2026-05-06 21:47 29.92348 52.44221 20197 ft 431 kts 163°
2026-05-06 21:47 29.89535 52.45364 19768 ft 428 kts 158°
2026-05-06 21:47 29.86988 52.47111 19350 ft 427 kts 144°
2026-05-06 21:47 29.84896 52.49520 18932 ft 426 kts 129°
2026-05-06 21:48 29.83380 52.52439 18522 ft 425 kts 115°
2026-05-06 21:48 29.82521 52.55689 18060 ft 425 kts 101°
2026-05-06 21:48 29.82310 52.59033 17600 ft 424 kts 92°
2026-05-06 21:48 29.82130 52.62409 17141 ft 421 kts 97°
2026-05-06 21:49 29.81681 52.65724 16701 ft 418 kts 103°
2026-05-06 21:49 29.80937 52.68950 16250 ft 415 kts 110°
2026-05-06 21:49 29.79906 52.72042 15810 ft 412 kts 116°
2026-05-06 21:49 29.78609 52.74973 15385 ft 410 kts 122°
2026-05-06 21:50 29.77072 52.77720 14958 ft 407 kts 128°
2026-05-06 21:50 29.75316 52.80262 14546 ft 404 kts 133°
2026-05-06 21:50 29.73370 52.82578 14130 ft 401 kts 139°
2026-05-06 21:50 29.71252 52.84648 13698 ft 398 kts 144°
2026-05-06 21:51 29.69024 52.86431 13243 ft 393 kts 150°
2026-05-06 21:51 29.66660 52.87948 12792 ft 384 kts 156°
2026-05-06 21:51 29.64292 52.89139 12340 ft 358 kts 161°
2026-05-06 21:51 29.62024 52.90018 11887 ft 332 kts 166°
2026-05-06 21:52 29.59859 52.90644 11414 ft 312 kts 171°
2026-05-06 21:52 29.57771 52.91052 10956 ft 299 kts 175°
2026-05-06 21:52 29.55711 52.91269 10581 ft 295 kts 179°
2026-05-06 21:52 29.53710 52.91320 10230 ft 279 kts 184°
2026-05-06 21:53 29.51825 52.91225 9886 ft 267 kts 187°
2026-05-06 21:53 29.49998 52.91005 9537 ft 260 kts 191°
2026-05-06 21:53 29.48241 52.90661 9228 ft 252 kts 194°
2026-05-06 21:53 29.47126 52.90366 9059 ft 245 kts 198°
2026-05-06 21:54 29.45635 52.89555 8815 ft 232 kts 218°
2026-05-06 21:54 29.44305 52.87829 8603 ft 207 kts 242°
2026-05-06 21:54 29.43817 52.86354 8478 ft 193 kts 258°
2026-05-06 21:54 29.43725 52.84837 8363 ft 192 kts 274°
2026-05-06 21:55 29.44010 52.83364 8257 ft 190 kts 289°
2026-05-06 21:55 29.44372 52.82461 8247 ft 186 kts 294°
2026-05-06 21:55 29.44888 52.81106 8246 ft 186 kts 292°
2026-05-06 21:55 29.45421 52.79714 8162 ft 195 kts 293°
2026-05-06 21:56 29.45992 52.78270 7958 ft 200 kts 293°
2026-05-06 21:56 29.46570 52.76822 7719 ft 197 kts 294°
2026-05-06 21:56 29.47295 52.75008 7408 ft 179 kts 293°
2026-05-06 21:56 29.47639 52.74149 7269 ft 172 kts 294°
2026-05-06 21:57 29.48131 52.72918 7066 ft 167 kts 294°
2026-05-06 21:57 29.48613 52.71711 6877 ft 166 kts 294°
2026-05-06 21:57 29.49092 52.70513 6665 ft 164 kts 294°
2026-05-06 21:57 29.49553 52.69358 6455 ft 159 kts 294°
2026-05-06 21:58 29.50010 52.68213 6263 ft 156 kts 294°
2026-05-06 21:58 29.50459 52.67088 6066 ft 155 kts 294°
2026-05-06 21:58 29.50909 52.65960 5862 ft 155 kts 294°
2026-05-06 21:58 29.51357 52.64837 5656 ft 154 kts 295°
2026-05-06 21:59 29.51801 52.63725 5447 ft 152 kts 295°
2026-05-06 21:59 29.52241 52.62621 5253 ft 151 kts 293°
2026-05-06 21:59 29.52677 52.61530 5080 ft 150 kts 294°
2026-05-06 21:59 29.53102 52.60464 4937 ft 142 kts 294°
2026-05-06 22:00 29.53461 52.59555 4918 ft 98 kts 294°
2026-05-06 22:00 29.53670 52.59029 4920 ft 50 kts 294°
2026-05-06 22:00 29.53757 52.58808 4922 ft 25 kts 294°
2026-05-06 22:00 29.53797 52.58706 4919 ft 6 kts 295°
2026-05-06 22:01 29.53825 52.58668 4921 ft 7 kts 322°
2026-05-06 22:01 29.53870 52.58657 4918 ft 7 kts
2026-05-06 22:01 29.53904 52.58669 4923 ft 3 kts 21°
2026-05-06 22:01 29.53911 52.58672 4922 ft 0 kts 21°
2026-05-06 22:02 29.53914 52.58673 4922 ft 2 kts 22°
2026-05-06 22:02 29.53944 52.58689 4923 ft 7 kts 25°
2026-05-06 22:02 29.54003 52.58721 4925 ft 10 kts 25°
2026-05-06 22:02 29.54065 52.58753 4925 ft 10 kts 24°
2026-05-06 22:03 29.54134 52.58789 4920 ft 13 kts 24°
2026-05-06 22:03 29.54223 52.58835 4918 ft 14 kts 24°
2026-05-06 22:03 29.54304 52.58877 4923 ft 10 kts 25°
2026-05-06 22:03 29.54353 52.58903 4926 ft 6 kts 25°
2026-05-06 22:04 29.54397 52.58926 4925 ft 9 kts 24°
2026-05-06 22:04 29.54449 52.58937 4929 ft 3 kts 346°
2026-05-06 22:04 29.54469 52.58923 4926 ft 4 kts 327°
2026-05-06 22:04 29.54491 52.58914 4926 ft 3 kts 355°
2026-05-06 22:05 29.54506 52.58917 4928 ft 1 kts 12°
2026-05-06 22:05 29.54509 52.58918 4928 ft 0 kts 21°
2026-05-06 22:05 29.54510 52.58919 4927 ft 0 kts 21°
2026-05-06 22:05 29.54513 52.58920 4927 ft 1 kts 21°
2026-05-06 22:06 29.54518 52.58923 4928 ft 1 kts 22°
2026-05-06 22:06 29.54523 52.58925 4928 ft 0 kts 21°
2026-05-06 22:06 29.54526 52.58926 4927 ft 1 kts 21°
2026-05-06 22:06 29.54528 52.58927 4927 ft 0 kts 21°
2026-05-06 22:07 29.54530 52.58928 4926 ft 0 kts 21°